Time,TemperatureF,DewpointF,PressureIn,WindDirection,WindDirectionDegrees,WindSpeedMPH,WindSpeedGustMPH,Humidity,HourlyPrecipIn,Conditions,Clouds,dailyrainin,SoftwareType,DateUTC
2013-03-05 00:01:00,42.0,39.0,30.02,NW,310,0.0,0.0,88,0.00,,,0.01,,2013-03-05 08:01:00,
2013-03-05 00:11:00,42.0,39.0,30.02,NW,310,0.0,0.0,88,0.00,,,0.01,,2013-03-05 08:11:00,
2013-03-05 00:21:00,44.0,40.0,30.02,NW,311,0.0,1.0,86,0.00,,,0.01,,2013-03-05 08:21:00,
2013-03-05 00:31:00,45.0,40.0,30.02,NW,310,0.0,0.0,83,0.00,,,0.01,,2013-03-05 08:31:00,
2013-03-05 00:41:00,45.0,40.0,30.02,NW,310,0.0,0.0,83,0.00,,,0.01,,2013-03-05 08:41:00,
2013-03-05 00:52:00,45.0,40.0,30.02,NW,310,0.0,0.0,82,0.00,,,0.01,,2013-03-05 08:52:00,
2013-03-05 01:01:00,45.0,40.0,30.02,NW,310,0.0,0.0,82,0.00,,,0.01,,2013-03-05 09:01:00,
2013-03-05 01:11:00,44.0,39.0,30.01,NW,310,0.0,0.0,81,0.00,,,0.01,,2013-03-05 09:11:00,
2013-03-05 01:21:00,44.0,39.0,30.01,NW,310,0.0,0.0,81,0.00,,,0.01,,2013-03-05 09:21:00,
2013-03-05 01:31:00,43.0,38.0,30.01,NW,310,0.0,0.0,82,0.00,,,0.01,,2013-03-05 09:31:00,
2013-03-05 01:42:00,43.0,38.0,30.01,NW,310,0.0,0.0,82,0.00,,,0.01,,2013-03-05 09:42:00,
2013-03-05 01:52:00,43.0,38.0,30.01,NW,310,0.0,0.0,83,0.00,,,0.01,,2013-03-05 09:52:00,
2013-03-05 02:01:00,44.0,39.0,30.01,NW,310,0.0,0.0,81,0.00,,,0.01,,2013-03-05 10:01:00,
2013-03-05 02:11:00,44.0,39.0,30.01,NW,310,0.0,0.0,81,0.00,,,0.01,,2013-03-05 10:11:00,
2013-03-05 02:21:00,45.0,39.0,30.00,NW,310,0.0,0.0,79,0.00,,,0.01,,2013-03-05 10:21:00,
2013-03-05 02:31:00,46.0,39.0,30.00,NW,309,2.0,2.0,76,0.00,,,0.01,,2013-03-05 10:31:00,
2013-03-05 02:41:00,46.0,39.0,30.00,NW,309,2.0,2.0,76,0.00,,,0.01,,2013-03-05 10:41:00,
2013-03-05 02:52:00,47.0,39.0,30.00,NW,309,0.0,2.0,75,0.00,,,0.01,,2013-03-05 10:52:00,
2013-03-05 03:01:00,47.0,39.0,29.99,NW,309,0.0,0.0,74,0.00,,,0.01,,2013-03-05 11:01:00,
2013-03-05 03:11:00,48.0,39.0,29.99,SE,125,0.0,4.0,71,0.00,,,0.01,,2013-03-05 11:11:00,
2013-03-05 03:21:00,48.0,39.0,29.99,SE,125,0.0,4.0,71,0.00,,,0.01,,2013-03-05 11:21:00,
2013-03-05 03:32:00,48.0,39.0,29.99,SE,126,0.0,2.0,71,0.00,,,0.01,,2013-03-05 11:32:00,
2013-03-05 03:41:00,48.0,39.0,29.99,SE,126,0.0,2.0,71,0.00,,,0.01,,2013-03-05 11:41:00,
2013-03-05 03:52:00,48.0,39.0,29.99,SE,128,0.0,3.0,70,0.00,,,0.01,,2013-03-05 11:52:00,
2013-03-05 04:02:00,48.0,38.0,29.99,South,174,0.0,3.0,69,0.00,,,0.01,,2013-03-05 12:02:00,
2013-03-05 04:11:00,48.0,38.0,29.99,South,174,0.0,3.0,69,0.00,,,0.01,,2013-03-05 12:11:00,
2013-03-05 04:22:00,48.0,38.0,29.98,SSE,150,0.0,3.0,69,0.00,,,0.01,,2013-03-05 12:22:00,
2013-03-05 04:32:00,48.0,39.0,29.98,SSE,150,0.0,0.0,70,0.00,,,0.01,,2013-03-05 12:32:00,
2013-03-05 04:42:00,48.0,39.0,29.98,SSE,150,0.0,0.0,70,0.00,,,0.01,,2013-03-05 12:42:00,
2013-03-05 04:52:00,48.0,39.0,29.98,SSE,150,0.0,2.0,71,0.00,,,0.01,,2013-03-05 12:52:00,
2013-03-05 05:01:00,47.0,39.0,29.99,SSE,150,0.0,0.0,73,0.00,,,0.01,,2013-03-05 13:01:00,
2013-03-05 05:11:00,47.0,39.0,29.99,SSE,150,0.0,0.0,73,0.00,,,0.01,,2013-03-05 13:11:00,
2013-03-05 05:21:00,46.0,39.0,29.98,SSE,150,1.0,3.0,76,0.00,,,0.01,,2013-03-05 13:21:00,
2013-03-05 05:31:00,45.0,39.0,29.99,SSE,151,0.0,2.0,79,0.00,,,0.01,,2013-03-05 13:31:00,
2013-03-05 05:41:00,45.0,39.0,29.99,SSE,151,0.0,2.0,79,0.00,,,0.01,,2013-03-05 13:41:00,
2013-03-05 05:52:00,45.0,39.0,29.99,SSE,151,2.0,2.0,80,0.00,,,0.01,,2013-03-05 13:52:00,
2013-03-05 06:02:00,44.0,39.0,29.98,SSE,151,0.0,2.0,82,0.00,,,0.01,,2013-03-05 14:02:00,
2013-03-05 06:11:00,44.0,39.0,29.98,SSE,151,0.0,2.0,82,0.00,,,0.01,,2013-03-05 14:11:00,
2013-03-05 06:21:00,44.0,39.0,29.99,SSE,151,0.0,2.0,82,0.00,,,0.01,,2013-03-05 14:21:00,
2013-03-05 06:31:00,45.0,39.0,29.98,SE,138,2.0,5.0,80,0.00,,,0.01,,2013-03-05 14:31:00,
2013-03-05 06:41:00,45.0,39.0,29.98,SE,138,2.0,5.0,80,0.00,,,0.01,,2013-03-05 14:41:00,
2013-03-05 06:52:00,45.0,39.0,29.98,SE,137,3.0,5.0,79,0.00,,,0.01,,2013-03-05 14:52:00,
2013-03-05 07:01:00,44.0,38.0,29.98,SE,146,0.0,3.0,80,0.00,,,0.00,,2013-03-05 15:01:00,
2013-03-05 07:11:00,44.0,38.0,29.98,SE,146,0.0,3.0,80,0.00,,,0.00,,2013-03-05 15:11:00,
2013-03-05 07:21:00,43.0,38.0,29.98,SSE,147,1.0,4.0,82,0.00,,,0.00,,2013-03-05 15:21:00,
2013-03-05 07:31:00,43.0,38.0,29.99,SE,146,0.0,0.0,83,0.00,,,0.00,,2013-03-05 15:31:00,
2013-03-05 07:42:00,43.0,38.0,29.99,SE,146,0.0,0.0,83,0.00,,,0.00,,2013-03-05 15:42:00,
2013-03-05 07:52:00,43.0,38.0,29.99,SE,146,0.0,2.0,84,0.00,,,0.00,,2013-03-05 15:52:00,
2013-03-05 08:01:00,44.0,39.0,29.99,SSE,147,0.0,3.0,84,0.00,,,0.00,,2013-03-05 16:01:00,
2013-03-05 08:11:00,44.0,39.0,29.99,SSE,147,0.0,3.0,84,0.00,,,0.00,,2013-03-05 16:11:00,
2013-03-05 08:21:00,45.0,39.0,29.99,SE,125,0.0,5.0,79,0.00,,,0.00,,2013-03-05 16:21:00,
2013-03-05 08:31:00,46.0,39.0,29.99,South,179,3.0,6.0,76,0.00,,,0.00,,2013-03-05 16:31:00,
2013-03-05 08:41:00,46.0,39.0,29.99,South,179,3.0,6.0,76,0.00,,,0.00,,2013-03-05 16:41:00,
2013-03-05 08:52:00,46.0,40.0,29.99,SE,127,0.0,10.0,78,0.00,,,0.00,,2013-03-05 16:52:00,
2013-03-05 09:01:00,46.0,39.0,29.99,SE,139,0.0,9.0,77,0.00,,,0.00,,2013-03-05 17:01:00,
2013-03-05 09:11:00,46.0,39.0,29.99,SE,139,0.0,9.0,77,0.00,,,0.00,,2013-03-05 17:11:00,
2013-03-05 09:21:00,46.0,39.0,29.99,SE,134,3.0,9.0,76,0.00,,,0.00,,2013-03-05 17:21:00,
2013-03-05 09:31:00,47.0,39.0,29.98,ESE,114,0.0,7.0,75,0.00,,,0.00,,2013-03-05 17:31:00,
2013-03-05 09:41:00,47.0,39.0,29.98,ESE,114,0.0,7.0,75,0.00,,,0.00,,2013-03-05 17:41:00,
2013-03-05 09:52:00,47.0,39.0,29.98,ESE,121,1.0,7.0,75,0.00,,,0.00,,2013-03-05 17:52:00,
2013-03-05 10:01:00,47.0,40.0,29.98,SE,129,3.0,9.0,76,0.00,,,0.00,,2013-03-05 18:01:00,
2013-03-05 10:11:00,47.0,40.0,29.98,SE,129,3.0,9.0,76,0.00,,,0.00,,2013-03-05 18:11:00,
2013-03-05 10:21:00,47.0,39.0,29.97,SE,142,1.0,12.0,75,0.00,,,0.00,,2013-03-05 18:21:00,
2013-03-05 10:31:00,48.0,41.0,29.97,ESE,123,0.0,8.0,76,0.00,,,0.00,,2013-03-05 18:31:00,
2013-03-05 10:41:00,48.0,41.0,29.97,ESE,123,0.0,8.0,76,0.00,,,0.00,,2013-03-05 18:41:00,
2013-03-05 10:53:00,48.0,40.0,29.96,South,175,3.0,10.0,75,0.00,,,0.00,,2013-03-05 18:53:00,
2013-03-05 11:01:00,49.0,41.0,29.96,SE,134,4.0,11.0,75,0.00,,,0.00,,2013-03-05 19:01:00,
2013-03-05 11:11:00,49.0,41.0,29.96,SE,134,4.0,11.0,75,0.00,,,0.00,,2013-03-05 19:11:00,
2013-03-05 11:21:00,49.0,41.0,29.96,SE,134,4.0,11.0,75,0.00,,,0.00,,2013-03-05 19:21:00,
2013-03-05 11:31:00,50.0,42.0,29.95,SSE,147,9.0,10.0,73,0.00,,,0.00,,2013-03-05 19:31:00,
2013-03-05 11:41:00,50.0,42.0,29.95,SSE,147,9.0,10.0,73,0.00,,,0.00,,2013-03-05 19:41:00,
2013-03-05 11:52:00,50.0,42.0,29.95,SE,128,10.0,10.0,73,0.00,,,0.00,,2013-03-05 19:52:00,
2013-03-05 12:01:00,50.0,42.0,29.94,SSW,209,1.0,10.0,73,0.00,,,0.00,,2013-03-05 20:01:00,
2013-03-05 12:11:00,50.0,41.0,29.94,SW,218,5.0,10.0,71,0.00,,,0.00,,2013-03-05 20:11:00,
2013-03-05 12:21:00,50.0,41.0,29.94,SW,218,5.0,10.0,71,0.00,,,0.00,,2013-03-05 20:21:00,
2013-03-05 12:31:00,50.0,40.0,29.94,SW,222,1.0,10.0,69,0.00,,,0.00,,2013-03-05 20:31:00,
2013-03-05 12:41:00,50.0,40.0,29.94,SW,222,1.0,10.0,69,0.00,,,0.00,,2013-03-05 20:41:00,
2013-03-05 12:52:00,50.0,39.0,29.93,SW,216,2.0,10.0,66,0.00,,,0.00,,2013-03-05 20:52:00,
2013-03-05 13:01:00,50.0,39.0,29.93,SW,225,0.0,10.0,65,0.00,,,0.00,,2013-03-05 21:01:00,
2013-03-05 13:11:00,50.0,39.0,29.93,SW,225,0.0,10.0,65,0.00,,,0.00,,2013-03-05 21:11:00,
2013-03-05 13:21:00,50.0,38.0,29.93,SSE,150,5.0,10.0,62,0.00,,,0.00,,2013-03-05 21:21:00,
2013-03-05 13:31:00,50.0,37.0,29.92,South,180,0.0,10.0,61,0.00,,,0.00,,2013-03-05 21:31:00,
2013-03-05 13:41:00,50.0,37.0,29.92,South,180,0.0,10.0,61,0.00,,,0.00,,2013-03-05 21:41:00,
2013-03-05 13:52:00,50.0,37.0,29.92,SSE,155,10.0,13.0,60,0.00,,,0.00,,2013-03-05 21:52:00,
2013-03-05 14:01:00,50.0,34.0,29.91,SSE,156,7.0,11.0,55,0.00,,,0.00,,2013-03-05 22:01:00,
2013-03-05 14:11:00,50.0,34.0,29.91,SSE,156,7.0,11.0,55,0.00,,,0.00,,2013-03-05 22:11:00,
2013-03-05 14:21:00,50.0,35.0,29.91,SSE,148,3.0,13.0,57,0.00,,,0.00,,2013-03-05 22:21:00,
2013-03-05 14:31:00,50.0,34.0,29.91,SSE,167,2.0,14.0,55,0.00,,,0.00,,2013-03-05 22:31:00,
2013-03-05 14:41:00,50.0,34.0,29.91,SSE,167,2.0,14.0,55,0.00,,,0.00,,2013-03-05 22:41:00,
2013-03-05 14:52:00,50.0,34.0,29.91,WSW,251,5.0,16.0,54,0.00,,,0.00,,2013-03-05 22:52:00,
2013-03-05 15:01:00,50.0,34.0,29.91,SSE,157,6.0,8.0,53,0.00,,,0.00,,2013-03-05 23:01:00,
2013-03-05 15:11:00,50.0,34.0,29.91,SSE,157,6.0,8.0,53,0.00,,,0.00,,2013-03-05 23:11:00,
2013-03-05 15:21:00,50.0,34.0,29.91,West,265,0.0,8.0,53,0.00,,,0.00,,2013-03-05 23:21:00,
2013-03-05 15:32:00,50.0,33.0,29.90,SE,127,9.0,10.0,52,0.00,,,0.00,,2013-03-05 23:32:00,
2013-03-05 15:41:00,50.0,33.0,29.90,SE,127,9.0,10.0,52,0.00,,,0.00,,2013-03-05 23:41:00,
2013-03-05 15:52:00,51.0,35.0,29.90,East,88,6.0,11.0,54,0.00,,,0.00,,2013-03-05 23:52:00,
2013-03-05 16:01:00,50.0,36.0,29.90,West,261,5.0,10.0,58,0.00,,,0.00,,2013-03-06 00:01:00,
2013-03-05 16:11:00,50.0,36.0,29.90,West,261,5.0,10.0,58,0.00,,,0.00,,2013-03-06 00:11:00,
2013-03-05 16:21:00,50.0,36.0,29.90,SE,138,0.0,10.0,59,0.00,,,0.00,,2013-03-06 00:21:00,
2013-03-05 16:31:00,49.0,36.0,29.90,WNW,283,5.0,9.0,61,0.00,,,0.00,,2013-03-06 00:31:00,
2013-03-05 16:41:00,49.0,36.0,29.90,WNW,283,5.0,9.0,61,0.00,,,0.00,,2013-03-06 00:41:00,
2013-03-05 16:52:00,48.0,36.0,29.91,WSW,242,0.0,10.0,63,0.00,,,0.00,,2013-03-06 00:52:00,
2013-03-05 17:01:00,48.0,37.0,29.90,SE,130,3.0,4.0,65,0.00,,,0.00,,2013-03-06 01:01:00,
2013-03-05 17:11:00,48.0,37.0,29.90,SE,130,3.0,4.0,65,0.00,,,0.00,,2013-03-06 01:11:00,
2013-03-05 17:21:00,47.0,37.0,29.89,South,184,2.0,9.0,67,0.00,,,0.00,,2013-03-06 01:21:00,
2013-03-05 17:31:00,46.0,36.0,29.88,SSW,208,0.0,4.0,68,0.00,,,0.00,,2013-03-06 01:31:00,
2013-03-05 17:41:00,46.0,36.0,29.88,SSW,208,0.0,4.0,68,0.00,,,0.00,,2013-03-06 01:41:00,
2013-03-05 17:52:00,46.0,36.0,29.87,South,171,3.0,6.0,69,0.00,,,0.00,,2013-03-06 01:52:00,
2013-03-05 18:01:00,45.0,36.0,29.86,SSE,163,0.0,4.0,70,0.00,,,0.00,,2013-03-06 02:01:00,
2013-03-05 18:11:00,45.0,36.0,29.86,SSE,163,0.0,4.0,70,0.00,,,0.00,,2013-03-06 02:11:00,
2013-03-05 18:21:00,45.0,36.0,29.86,ESE,122,0.0,4.0,71,0.00,,,0.00,,2013-03-06 02:21:00,
2013-03-05 18:31:00,45.0,37.0,29.85,ESE,123,0.0,3.0,72,0.00,,,0.00,,2013-03-06 02:31:00,
2013-03-05 18:41:00,45.0,37.0,29.85,ESE,123,0.0,3.0,72,0.00,,,0.00,,2013-03-06 02:41:00,
2013-03-05 18:52:00,44.0,36.0,29.85,ESE,122,0.0,3.0,73,0.00,,,0.00,,2013-03-06 02:52:00,
2013-03-05 19:01:00,44.0,36.0,29.85,ESE,123,0.0,2.0,73,0.00,,,0.00,,2013-03-06 03:01:00,
2013-03-05 19:11:00,44.0,36.0,29.85,ESE,123,0.0,2.0,73,0.00,,,0.00,,2013-03-06 03:11:00,
2013-03-05 19:21:00,44.0,36.0,29.85,ESE,123,0.0,2.0,74,0.00,,,0.00,,2013-03-06 03:21:00,
2013-03-05 19:31:00,44.0,36.0,29.85,ESE,123,0.0,3.0,73,0.00,,,0.00,,2013-03-06 03:31:00,
2013-03-05 19:41:00,44.0,36.0,29.85,ESE,123,0.0,3.0,73,0.00,,,0.00,,2013-03-06 03:41:00,
2013-03-05 19:52:00,44.0,36.0,29.84,SSE,148,1.0,4.0,73,0.00,,,0.00,,2013-03-06 03:52:00,
2013-03-05 20:01:00,44.0,36.0,29.85,South,178,0.0,3.0,73,0.00,,,0.00,,2013-03-06 04:01:00,
2013-03-05 20:11:00,44.0,36.0,29.85,South,178,0.0,3.0,73,0.00,,,0.00,,2013-03-06 04:11:00,
2013-03-05 20:21:00,44.0,36.0,29.85,ESE,119,0.0,3.0,74,0.00,,,0.00,,2013-03-06 04:21:00,
2013-03-05 20:31:00,44.0,36.0,29.85,SSE,160,1.0,4.0,74,0.00,,,0.00,,2013-03-06 04:31:00,
2013-03-05 20:41:00,44.0,36.0,29.85,SSE,160,1.0,4.0,74,0.00,,,0.00,,2013-03-06 04:41:00,
2013-03-05 20:52:00,44.0,36.0,29.85,ESE,119,3.0,5.0,74,0.00,,,0.00,,2013-03-06 04:52:00,
2013-03-05 21:01:00,44.0,37.0,29.85,SE,128,0.0,4.0,75,0.00,,,0.00,,2013-03-06 05:01:00,
2013-03-05 21:11:00,44.0,37.0,29.84,SE,134,0.0,8.0,75,0.00,,,0.00,,2013-03-06 05:11:00,
2013-03-05 21:22:00,44.0,37.0,29.84,SE,134,0.0,8.0,75,0.00,,,0.00,,2013-03-06 05:22:00,
2013-03-05 21:32:00,44.0,37.0,29.85,SE,134,0.0,5.0,75,0.00,,,0.00,,2013-03-06 05:32:00,
2013-03-05 21:42:00,44.0,37.0,29.85,SE,134,0.0,5.0,75,0.00,,,0.00,,2013-03-06 05:42:00,
2013-03-05 21:52:00,44.0,36.0,29.85,SSE,156,3.0,5.0,74,0.00,,,0.00,,2013-03-06 05:52:00,
2013-03-05 22:01:00,44.0,36.0,29.85,SE,139,3.0,6.0,74,0.00,,,0.00,,2013-03-06 06:01:00,
2013-03-05 22:11:00,44.0,36.0,29.85,SE,139,3.0,6.0,74,0.00,,,0.00,,2013-03-06 06:11:00,
2013-03-05 22:21:00,44.0,37.0,29.85,SE,132,3.0,6.0,75,0.00,,,0.00,,2013-03-06 06:21:00,
2013-03-05 22:31:00,44.0,37.0,29.83,SSE,167,3.0,8.0,75,0.00,,,0.00,,2013-03-06 06:31:00,
2013-03-05 22:41:00,44.0,37.0,29.83,SSE,167,3.0,8.0,75,0.00,,,0.00,,2013-03-06 06:41:00,
2013-03-05 22:52:00,44.0,37.0,29.83,SSE,153,2.0,11.0,75,0.00,,,0.00,,2013-03-06 06:52:00,
2013-03-05 23:01:00,44.0,37.0,29.82,SSE,148,5.0,11.0,75,0.00,,,0.00,,2013-03-06 07:01:00,
2013-03-05 23:11:00,44.0,37.0,29.82,SSE,148,5.0,11.0,75,0.00,,,0.00,,2013-03-06 07:11:00,
2013-03-05 23:21:00,44.0,37.0,29.82,SE,132,10.0,13.0,76,0.00,,,0.00,,2013-03-06 07:21:00,
2013-03-05 23:31:00,44.0,37.0,29.82,SW,219,0.0,10.0,76,0.00,,,0.00,,2013-03-06 07:31:00,
2013-03-05 23:41:00,44.0,37.0,29.82,SW,219,0.0,10.0,76,0.00,,,0.00,,2013-03-06 07:41:00,
2013-03-05 23:52:00,44.0,38.0,29.83,South,174,3.0,10.0,79,0.01,,,0.01,,2013-03-06 07:52:00,